TimeEEST,TemperatureF,Dew PointF,Humidity,Sea Level PressureIn,VisibilityMPH,Wind Direction,Wind SpeedMPH,Gust SpeedMPH,PrecipitationIn,Events,Conditions,WindDirDegrees,DateUTC
12:20 AM,35.6,23.0,60,30.18,-9999.0,Variable,2.3,-,N/A,,Clear,0,2013-09-26 21:20:00
12:50 AM,35.6,24.8,65,30.18,-9999.0,Variable,2.3,-,N/A,,Clear,0,2013-09-26 21:50:00
1:20 AM,33.8,24.8,70,30.18,-9999.0,Variable,2.3,-,N/A,,Clear,0,2013-09-26 22:20:00
1:50 AM,33.8,24.8,70,30.18,-9999.0,Variable,2.3,-,N/A,,Clear,0,2013-09-26 22:50:00
2:20 AM,32.0,26.6,80,30.18,-9999.0,Calm,Calm,-,N/A,,Clear,0,2013-09-26 23:20:00
2:50 AM,33.8,24.8,70,30.15,-9999.0,Calm,Calm,-,N/A,,Clear,0,2013-09-26 23:50:00
3:00 AM,34,24,55,,12,Calm,Calm,,,,,,2013-09-27 00:00:00
3:20 AM,28.4,23.0,80,30.15,-9999.0,Calm,Calm,-,N/A,,Clear,0,2013-09-27 00:20:00
3:50 AM,30.2,24.8,80,30.15,-9999.0,Calm,Calm,-,N/A,,Clear,0,2013-09-27 00:50:00
4:20 AM,30.2,24.8,80,30.15,-9999.0,WSW,2.3,-,N/A,,Clear,250,2013-09-27 01:20:00
4:50 AM,30.2,23.0,75,30.15,-9999.0,Variable,1.2,-,N/A,,Clear,0,2013-09-27 01:50:00
5:20 AM,26.6,23.0,86,30.15,-9999.0,SSW,1.2,-,N/A,,Clear,210,2013-09-27 02:20:00
5:50 AM,28.4,23.0,80,30.15,-9999.0,Calm,Calm,-,N/A,,Clear,0,2013-09-27 02:50:00
6:20 AM,28.4,23.0,80,30.15,-9999.0,Calm,Calm,-,N/A,,Clear,0,2013-09-27 03:20:00
6:50 AM,28.4,23.0,80,30.15,-9999.0,Calm,Calm,-,N/A,,Clear,0,2013-09-27 03:50:00
7:20 AM,33.8,24.8,70,30.15,-9999.0,Calm,Calm,-,N/A,,Clear,0,2013-09-27 04:20:00
7:50 AM,39.2,26.6,61,30.15,-9999.0,Variable,2.3,-,N/A,,Clear,0,2013-09-27 04:50:00
8:20 AM,44.6,26.6,49,30.15,-9999.0,Calm,Calm,-,N/A,,Clear,0,2013-09-27 05:20:00
8:50 AM,50.0,26.6,40,30.15,-9999.0,Variable,1.2,-,N/A,,Clear,0,2013-09-27 05:50:00
9:00 AM,50,24,24,,12,NE,1.2,,,,,40,2013-09-27 06:00:00
9:20 AM,53.6,24.8,33,30.15,-9999.0,Variable,2.3,-,N/A,,Clear,0,2013-09-27 06:20:00
9:50 AM,55.4,24.8,31,30.15,-9999.0,Variable,2.3,-,N/A,,Clear,0,2013-09-27 06:50:00
10:20 AM,59.0,24.8,27,30.15,-9999.0,NE,3.5,-,N/A,,Clear,50,2013-09-27 07:20:00
10:50 AM,60.8,24.8,25,30.12,-9999.0,Variable,2.3,-,N/A,,Clear,0,2013-09-27 07:50:00
11:20 AM,62.6,24.8,24,30.12,-9999.0,Variable,3.5,-,N/A,,Clear,0,2013-09-27 08:20:00
11:50 AM,62.6,19.4,19,30.09,-9999.0,Variable,4.6,-,N/A,,Clear,0,2013-09-27 08:50:00
12:20 PM,64.4,21.2,19,30.09,-9999.0,West,6.9,-,N/A,,Clear,280,2013-09-27 09:20:00
12:50 PM,66.2,21.2,18,30.06,-9999.0,Variable,4.6,-,N/A,,Clear,0,2013-09-27 09:50:00
1:20 PM,66.2,21.2,18,30.06,-9999.0,Variable,4.6,-,N/A,,Clear,0,2013-09-27 10:20:00
1:50 PM,68.0,19.4,16,30.06,6.2,West,8.1,-,N/A,,Partly Cloudy,260,2013-09-27 10:50:00
2:20 PM,68.0,17.6,15,30.04,6.2,Variable,5.8,-,N/A,,Partly Cloudy,0,2013-09-27 11:20:00
2:50 PM,69.8,15.8,13,30.04,6.2,West,6.9,-,N/A,,Partly Cloudy,280,2013-09-27 11:50:00
3:00 PM,69,16,6,,12,West,6.9,,,,Scattered Clouds,280,2013-09-27 12:00:00
3:20 PM,69.8,14.0,12,30.04,6.2,West,13.8,-,N/A,,Partly Cloudy,280,2013-09-27 12:20:00
3:50 PM,69.8,12.2,11,30.04,6.2,West,18.4,-,N/A,,Partly Cloudy,270,2013-09-27 12:50:00
4:20 PM,68.0,10.4,11,30.04,6.2,West,16.1,-,N/A,,Partly Cloudy,270,2013-09-27 13:20:00
4:50 PM,68.0,12.2,12,30.04,6.2,West,16.1,-,N/A,,Partly Cloudy,270,2013-09-27 13:50:00
5:20 PM,66.2,12.2,12,30.04,6.2,West,13.8,-,N/A,,Partly Cloudy,260,2013-09-27 14:20:00
5:50 PM,62.6,15.8,16,30.04,6.2,West,10.4,-,N/A,,Partly Cloudy,260,2013-09-27 14:50:00
6:20 PM,60.8,17.6,19,30.04,6.2,West,9.2,-,N/A,,Scattered Clouds,280,2013-09-27 15:20:00
6:50 PM,59.0,17.6,20,30.04,6.2,WNW,10.4,-,N/A,,Scattered Clouds,290,2013-09-27 15:50:00
7:20 PM,57.2,17.6,21,30.04,6.2,SW,3.5,-,N/A,,Scattered Clouds,220,2013-09-27 16:20:00
7:50 PM,55.4,17.6,23,30.04,-9999.0,West,4.6,-,N/A,,Clear,260,2013-09-27 16:50:00
8:20 PM,50.0,21.2,32,30.04,-9999.0,Calm,Calm,-,N/A,,Clear,0,2013-09-27 17:20:00
8:50 PM,48.2,21.2,34,30.04,-9999.0,Calm,Calm,-,N/A,,Clear,0,2013-09-27 17:50:00
9:00 PM,48,21,22,,12,Calm,Calm,,,,Partly Cloudy,,2013-09-27 18:00:00
9:20 PM,46.4,24.8,43,30.04,-9999.0,Variable,2.3,-,N/A,,Clear,0,2013-09-27 18:20:00
9:50 PM,44.6,24.8,46,30.04,-9999.0,ESE,5.8,-,N/A,,Clear,120,2013-09-27 18:50:00
10:20 PM,46.4,23.0,40,30.04,-9999.0,SE,5.8,-,N/A,,Clear,130,2013-09-27 19:20:00
10:50 PM,46.4,23.0,40,30.04,-9999.0,SE,3.5,-,N/A,,Clear,130,2013-09-27 19:50:00
11:20 PM,44.6,24.8,46,30.04,-9999.0,WNW,3.5,-,N/A,,Clear,290,2013-09-27 20:20:00
11:50 PM,41.0,24.8,53,30.01,-9999.0,Variable,1.2,-,N/A,,Clear,0,2013-09-27 20:50:00